| time (UTC) | temp F | wind direction | speed MPH | gust MPH | rain 1hr in | rain 24hr in | rain mn in | humidity % | barometer mb |
| 20260502210640 | 50 | 0 | 0.0 | 0.0 | 0.01 | 0.13 | 0.13 | 96 | 1011.3 |
| 20260502205639 | 50 | 0 | 0.0 | 0.0 | 0.01 | 0.13 | 0.13 | 96 | 1011.3 |
| 20260502204639 | 51 | 0 | 0.0 | 0.0 | 0.00 | 0.13 | 0.13 | 96 | 1011.3 |
| 20260502203639 | 51 | 0 | 0.0 | 0.0 | 0.00 | 0.13 | 0.13 | 96 | 1011.4 |
| 20260502201636 | 51 | 0 | 0.0 | 0.0 | 0.00 | 0.13 | 0.13 | 95 | 1011.4 |
| 20260502200638 | 51 | 0 | 0.0 | 0.0 | 0.00 | 0.13 | 0.13 | 95 | 1011.3 |
| 20260502195638 | 51 | 0 | 0.0 | 0.0 | 0.01 | 0.13 | 0.13 | 95 | 1011.3 |
| 20260502193634 | 52 | 0 | 0.0 | 0.0 | 0.02 | 0.13 | 0.13 | 95 | 1011.3 |
| 20260502192634 | 52 | 0 | 0.0 | 0.0 | 0.02 | 0.13 | 0.13 | 95 | 1011.3 |
| 20260502191634 | 52 | 0 | 0.0 | 0.0 | 0.03 | 0.13 | 0.13 | 95 | 1011.4 |
| 20260502190633 | 52 | 0 | 0.0 | 0.0 | 0.04 | 0.13 | 0.13 | 94 | 1011.5 |
| 20260502185633 | 53 | 0 | 0.0 | 0.0 | 0.04 | 0.12 | 0.12 | 94 | 1011.6 |
| 20260502184632 | 53 | 0 | 0.0 | 0.0 | 0.04 | 0.12 | 0.12 | 94 | 1011.6 |
| 20260502182631 | 53 | 0 | 0.0 | 0.0 | 0.05 | 0.10 | 0.10 | 93 | 1011.9 |
| 20260502181633 | 53 | 0 | 0.0 | 0.0 | 0.04 | 0.09 | 0.09 | 93 | 1012.0 |
| 20260502180630 | 53 | 0 | 0.0 | 0.0 | 0.04 | 0.09 | 0.09 | 93 | 1012.1 |
| 20260502163625 | 55 | 0 | 0.0 | 0.0 | 0.02 | 0.02 | 0.02 | 85 | 1012.6 |
| 20260502161623 | 56 | 0 | 0.0 | 0.0 | 0.02 | 0.02 | 0.02 | 83 | 1012.6 |
| 20260502160623 | 57 | 0 | 0.0 | 0.0 | 0.02 | 0.02 | 0.02 | 81 | 1012.6 |
| 20260502150621 | 61 | 0 | 0.0 | 0.0 | 0.00 | 0.00 | 0.00 | 65 | 1013.0 |
| 20260502130614 | 62 | 0 | 0.0 | 0.0 | 0.00 | 0.00 | 0.00 | 67 | 1014.4 |
| 20260502123613 | 62 | 0 | 0.0 | 0.0 | 0.00 | 0.02 | 0.00 | 65 | 1014.5 |
| 20260502122611 | 63 | 0 | 0.0 | 0.0 | 0.00 | 0.02 | 0.00 | 67 | 1014.6 |
| 20260502121611 | 61 | 0 | 0.0 | 0.0 | 0.00 | 0.02 | 0.00 | 69 | 1014.8 |
| 20260502120617 | 62 | 0 | 0.0 | 0.0 | 0.00 | 0.02 | 0.00 | 69 | 1015.0 |
| 20260502115611 | 60 | 0 | 0.0 | 0.0 | 0.00 | 0.02 | 0.00 | 70 | 1015.2 |
| 20260502114610 | 60 | 0 | 0.0 | 0.0 | 0.00 | 0.02 | 0.00 | 70 | 1015.3 |
| 20260502113608 | 60 | 0 | 0.0 | 0.0 | 0.00 | 0.02 | 0.00 | 71 | 1015.4 |
| 20260502112607 | 60 | 0 | 0.0 | 0.0 | 0.00 | 0.02 | 0.00 | 71 | 1015.5 |
| 20260502111607 | 60 | 0 | 0.0 | 0.0 | 0.00 | 0.02 | 0.00 | 70 | 1015.7 |
| 20260502110608 | 60 | 0 | 0.0 | 0.0 | 0.00 | 0.02 | 0.00 | 71 | 1015.9 |
| 20260502105606 | 60 | 0 | 0.0 | 0.0 | 0.00 | 0.02 | 0.00 | 70 | 1015.9 |
| 20260502104606 | 60 | 0 | 0.0 | 0.0 | 0.00 | 0.02 | 0.00 | 69 | 1016.1 |
| 20260502103605 | 60 | 0 | 0.0 | 0.0 | 0.00 | 0.02 | 0.00 | 74 | 1016.0 |
| 20260502102605 | 60 | 0 | 0.0 | 0.0 | 0.00 | 0.02 | 0.00 | 77 | 1016.0 |
| 20260502101604 | 58 | 0 | 0.0 | 0.0 | 0.00 | 0.02 | 0.00 | 77 | 1016.0 |
| 20260502090601 | 56 | 0 | 0.0 | 0.0 | 0.00 | 0.02 | 0.00 | 83 | 1016.5 |
| 20260502065554 | 48 | 0 | 0.0 | 0.0 | 0.00 | 0.02 | 0.00 | 100 | 1017.1 |
| 20260502064551 | 47 | 0 | 0.0 | 0.0 | 0.00 | 0.02 | 0.00 | 100 | 1017.1 |
| 20260502063552 | 45 | 0 | 0.0 | 0.0 | 0.00 | 0.02 | 0.00 | 100 | 1017.2 |
| 20260502062551 | 44 | 0 | 0.0 | 0.0 | 0.00 | 0.02 | 0.00 | 100 | 1017.3 |
| 20260502061551 | 43 | 0 | 0.0 | 0.0 | 0.00 | 0.02 | 0.00 | 100 | 1017.2 |
| 20260502060550 | 42 | 0 | 0.0 | 0.0 | 0.00 | 0.02 | 0.00 | 100 | 1017.1 |
| 20260502055548 | 42 | 0 | 0.0 | 0.0 | 0.00 | 0.02 | 0.00 | 100 | 1017.0 |
| 20260502054550 | 41 | 0 | 0.0 | 0.0 | 0.00 | 0.02 | 0.00 | 100 | 1017.1 |
| 20260502053549 | 41 | 0 | 0.0 | 0.0 | 0.00 | 0.02 | 0.00 | 100 | 1017.2 |
| 20260502052548 | 40 | 0 | 0.0 | 0.0 | 0.00 | 0.02 | 0.00 | 100 | 1017.2 |
| 20260502051546 | 39 | 0 | 0.0 | 0.0 | 0.00 | 0.02 | 0.00 | 100 | 1017.2 |
| 20260502050546 | 39 | 0 | 0.0 | 0.0 | 0.00 | 0.02 | 0.00 | 97 | 1017.1 |
| 20260502045546 | 39 | 0 | 0.0 | 0.0 | 0.00 | 0.02 | 0.00 | 97 | 1017.2 |
| 20260502043543 | 39 | 0 | 0.0 | 0.0 | 0.00 | 0.02 | 0.00 | 97 | 1017.2 |
| 20260502042543 | 39 | 0 | 0.0 | 0.0 | 0.00 | 0.02 | 0.00 | 97 | 1017.3 |
| 20260502041545 | 39 | 0 | 0.0 | 0.0 | 0.00 | 0.02 | 0.00 | 97 | 1017.3 |
| 20260502040542 | 40 | 0 | 0.0 | 0.0 | 0.00 | 0.02 | 0.00 | 97 | 1017.4 |
| 20260501224608 | 47 | 0 | 0.0 | 0.0 | 0.00 | 0.02 | 0.02 | 95 | 1019.9 |
| 20260501223607 | 47 | 0 | 0.0 | 0.0 | 0.00 | 0.02 | 0.02 | 95 | 1020.0 |
| 20260501222606 | 46 | 0 | 0.0 | 0.0 | 0.00 | 0.02 | 0.02 | 95 | 1020.0 |
| 20260501221605 | 46 | 0 | 0.0 | 0.0 | 0.00 | 0.02 | 0.02 | 95 | 1019.9 |
| 20260501220605 | 46 | 0 | 0.0 | 0.0 | 0.00 | 0.02 | 0.02 | 95 | 1019.9 |
| 20260501215606 | 45 | 0 | 0.0 | 0.0 | 0.00 | 0.02 | 0.02 | 95 | 1019.9 |
| 20260501214603 | 44 | 0 | 0.0 | 0.0 | 0.00 | 0.02 | 0.02 | 94 | 1019.9 |
| 20260501213604 | 45 | 0 | 0.0 | 0.0 | 0.00 | 0.02 | 0.02 | 94 | 1019.9 |
| 20260501212603 | 45 | 0 | 0.0 | 0.0 | 0.00 | 0.02 | 0.02 | 94 | 1019.9 |
| 20260501211604 | 45 | 0 | 0.0 | 0.0 | 0.00 | 0.02 | 0.02 | 93 | 1019.8 |